| time (UTC) | temp F | wind direction | speed knots | gust knots | rain 1hr in | rain 24hr in | rain mn in | humidity % | barometer mb |
| 20260906024546 | 77 | 134 | 0.0 | 0.0 | 0.00 | 0.00 | 0.00 | 39 | 1012.1 |
| 20260906023038 | 78 | 269 | 0.0 | 0.9 | 0.00 | 0.00 | 0.00 | 38 | 1012.1 |
| 20260906021537 | 79 | 41 | 0.0 | 2.6 | 0.00 | 0.00 | 0.00 | 37 | 1012.2 |
| 20260906020035 | 80 | 103 | 0.0 | 4.3 | 0.00 | 0.00 | 0.00 | 40 | 1012.3 |
| 20260906014545 | 81 | 79 | 0.0 | 4.3 | 0.00 | 0.00 | 0.00 | 40 | 1012.3 |
| 20260906013034 | 82 | 235 | 0.0 | 3.5 | 0.00 | 0.00 | 0.00 | 40 | 1012.2 |
| 20260906011539 | 83 | 131 | 0.0 | 2.6 | 0.00 | 0.00 | 0.00 | 38 | 1012.2 |
| 20260906010056 | 83 | 75 | 0.0 | 1.7 | 0.00 | 0.00 | 0.00 | 38 | 1012.4 |
| 20260906004529 | 83 | 120 | 0.0 | 1.7 | 0.00 | 0.00 | 0.00 | 38 | 1012.3 |
| 20260906003029 | 82 | 244 | 1.7 | 4.3 | 0.00 | 0.00 | 0.00 | 38 | 1012.3 |
| 20260906001541 | 83 | 289 | 0.0 | 2.6 | 0.00 | 0.00 | 0.00 | 38 | 1012.4 |
| 20260906000026 | 82 | 121 | 0.0 | 0.9 | 0.00 | 0.00 | 0.00 | 39 | 1012.4 |
| 20260905234526 | 82 | 300 | 0.9 | 3.5 | 0.00 | 0.00 | 0.00 | 38 | 1012.4 |
| 20260905233023 | 81 | 143 | 0.9 | 3.5 | 0.00 | 0.00 | 0.00 | 39 | 1012.5 |
| 20260905231535 | 82 | 253 | 0.0 | 0.9 | 0.00 | 0.00 | 0.00 | 38 | 1012.6 |
| 20260905230019 | 83 | 208 | 0.0 | 2.6 | 0.00 | 0.00 | 0.00 | 39 | 1012.7 |
| 20260905224520 | 80 | 286 | 0.9 | 6.1 | 0.00 | 0.00 | 0.00 | 40 | 1012.7 |
| 20260905223024 | 80 | 278 | 0.9 | 3.5 | 0.00 | 0.00 | 0.00 | 40 | 1013.0 |
| 20260905221512 | 79 | 121 | 0.0 | 2.6 | 0.00 | 0.00 | 0.00 | 39 | 1013.1 |
| 20260905220010 | 80 | 135 | 0.0 | 6.1 | 0.00 | 0.00 | 0.00 | 39 | 1013.3 |
| 20260905214509 | 81 | 250 | 0.0 | 4.3 | 0.00 | 0.00 | 0.00 | 39 | 1013.3 |
| 20260905213008 | 80 | 297 | 0.9 | 5.2 | 0.00 | 0.00 | 0.00 | 40 | 1013.4 |
| 20260905211513 | 80 | 114 | 0.9 | 3.5 | 0.00 | 0.00 | 0.00 | 40 | 1013.5 |
| 20260905210104 | 79 | 276 | 0.9 | 3.5 | 0.00 | 0.00 | 0.00 | 43 | 1013.6 |
| 20260905204602 | 77 | 295 | 0.9 | 5.2 | 0.00 | 0.00 | 0.00 | 43 | 1013.8 |
| 20260905203101 | 78 | 348 | 0.9 | 4.3 | 0.00 | 0.00 | 0.00 | 45 | 1013.9 |
| 20260905201605 | 77 | 39 | 0.0 | 2.6 | 0.00 | 0.00 | 0.00 | 47 | 1013.9 |
| 20260905200057 | 76 | 221 | 1.7 | 5.2 | 0.00 | 0.00 | 0.00 | 49 | 1014.0 |
| 20260905194553 | 77 | 224 | 2.6 | 6.1 | 0.00 | 0.00 | 0.00 | 47 | 1014.1 |
| 20260905193052 | 77 | 117 | 0.9 | 4.3 | 0.00 | 0.00 | 0.00 | 45 | 1014.3 |
| 20260905191550 | 75 | 113 | 0.0 | 2.6 | 0.00 | 0.00 | 0.00 | 50 | 1014.4 |
| 20260905190047 | 75 | 258 | 0.0 | 2.6 | 0.00 | 0.00 | 0.00 | 51 | 1014.5 |
| 20260905184547 | 73 | 68 | 0.0 | 2.6 | 0.00 | 0.00 | 0.00 | 53 | 1014.6 |
| 20260905183058 | 72 | 212 | 0.9 | 5.2 | 0.00 | 0.00 | 0.00 | 54 | 1014.5 |
| 20260905181541 | 73 | 221 | 0.0 | 1.7 | 0.00 | 0.00 | 0.00 | 55 | 1014.5 |
| 20260905180048 | 73 | 239 | 0.0 | 5.2 | 0.00 | 0.00 | 0.00 | 53 | 1014.5 |
| 20260905174537 | 72 | 37 | 0.0 | 1.7 | 0.00 | 0.00 | 0.00 | 56 | 1014.4 |
| 20260905173035 | 70 | 108 | 0.9 | 3.5 | 0.00 | 0.00 | 0.00 | 56 | 1014.5 |
| 20260905171534 | 69 | 290 | 0.0 | 2.6 | 0.00 | 0.00 | 0.00 | 59 | 1014.4 |
| 20260905170030 | 68 | 238 | 0.0 | 3.5 | 0.00 | 0.00 | 0.00 | 61 | 1014.4 |
| 20260905164527 | 66 | 154 | 0.0 | 3.5 | 0.00 | 0.00 | 0.00 | 64 | 1014.3 |
| 20260905163026 | 65 | 86 | 0.9 | 2.6 | 0.00 | 0.00 | 0.00 | 66 | 1014.4 |
| 20260905161525 | 63 | 109 | 0.0 | 1.7 | 0.00 | 0.00 | 0.00 | 70 | 1014.5 |
| 20260905160020 | 63 | 125 | 0.0 | 0.9 | 0.00 | 0.00 | 0.00 | 71 | 1014.5 |
| 20260905154516 | 61 | 120 | 0.0 | 1.7 | 0.00 | 0.00 | 0.00 | 73 | 1014.4 |
| 20260905153020 | 59 | 101 | 0.0 | 1.7 | 0.00 | 0.00 | 0.00 | 74 | 1014.4 |
| 20260905151522 | 58 | 93 | 0.0 | 0.9 | 0.00 | 0.00 | 0.00 | 75 | 1014.4 |
| 20260905150019 | 57 | 104 | 0.0 | 0.0 | 0.00 | 0.00 | 0.00 | 78 | 1014.4 |
| 20260905144517 | 55 | 95 | 0.0 | 0.0 | 0.00 | 0.00 | 0.00 | 80 | 1014.3 |
| 20260905143012 | 54 | 95 | 0.0 | 0.0 | 0.00 | 0.00 | 0.00 | 80 | 1014.4 |
| 20260905141510 | 54 | 94 | 0.0 | 0.0 | 0.00 | 0.00 | 0.00 | 80 | 1014.2 |
| 20260905140008 | 54 | 95 | 0.0 | 0.0 | 0.00 | 0.00 | 0.00 | 81 | 1014.0 |
| 20260905134506 | 55 | 113 | 0.0 | 0.0 | 0.00 | 0.01 | 0.00 | 82 | 1014.0 |
| 20260905133005 | 55 | 114 | 0.0 | 0.0 | 0.00 | 0.01 | 0.00 | 82 | 1014.0 |
| 20260905131503 | 55 | 114 | 0.0 | 0.0 | 0.00 | 0.01 | 0.00 | 81 | 1013.9 |
| 20260905130100 | 56 | 115 | 0.0 | 0.0 | 0.00 | 0.01 | 0.00 | 79 | 1013.8 |
| 20260905124558 | 56 | 114 | 0.0 | 0.0 | 0.00 | 0.01 | 0.00 | 78 | 1013.7 |
| 20260905123104 | 57 | 112 | 0.0 | 1.7 | 0.00 | 0.01 | 0.00 | 78 | 1013.7 |
| 20260905121555 | 57 | 95 | 0.0 | 1.7 | 0.00 | 0.01 | 0.00 | 77 | 1013.7 |
| 20260905120054 | 57 | 103 | 0.0 | 2.6 | 0.00 | 0.01 | 0.00 | 76 | 1013.9 |
| 20260905114553 | 57 | 107 | 0.0 | 0.0 | 0.00 | 0.01 | 0.00 | 76 | 1013.9 |
| 20260905113053 | 57 | 92 | 0.0 | 2.6 | 0.00 | 0.01 | 0.00 | 75 | 1013.8 |
| 20260905111554 | 57 | 109 | 0.0 | 0.0 | 0.00 | 0.01 | 0.00 | 75 | 1014.1 |
| 20260905110049 | 57 | 91 | 0.0 | 0.9 | 0.00 | 0.01 | 0.00 | 74 | 1014.1 |
| 20260905104603 | 57 | 84 | 0.0 | 1.7 | 0.00 | 0.01 | 0.00 | 74 | 1014.0 |
| 20260905103047 | 57 | 108 | 0.0 | 1.7 | 0.00 | 0.01 | 0.00 | 72 | 1014.1 |
| 20260905101545 | 57 | 98 | 0.0 | 0.0 | 0.00 | 0.01 | 0.00 | 72 | 1014.3 |
| 20260905100045 | 57 | 116 | 0.0 | 0.0 | 0.00 | 0.01 | 0.00 | 71 | 1014.2 |
| 20260905094542 | 58 | 97 | 0.0 | 1.7 | 0.00 | 0.01 | 0.00 | 70 | 1014.2 |
| 20260905093040 | 58 | 113 | 0.0 | 0.9 | 0.00 | 0.01 | 0.00 | 70 | 1014.2 |
| 20260905091539 | 58 | 108 | 0.0 | 1.7 | 0.00 | 0.01 | 0.00 | 70 | 1014.1 |
| 20260905090052 | 59 | 123 | 0.0 | 0.0 | 0.00 | 0.01 | 0.00 | 69 | 1014.1 |
| 20260905084535 | 59 | 117 | 0.0 | 0.0 | 0.00 | 0.01 | 0.00 | 68 | 1014.1 |
| 20260905083033 | 59 | 115 | 0.0 | 2.6 | 0.00 | 0.01 | 0.00 | 67 | 1014.2 |
| 20260905081531 | 60 | 107 | 0.0 | 2.6 | 0.00 | 0.01 | 0.00 | 67 | 1014.1 |
| 20260905080028 | 60 | 109 | 0.0 | 3.5 | 0.00 | 0.01 | 0.00 | 66 | 1014.0 |
| 20260905074526 | 60 | 130 | 0.0 | 3.5 | 0.00 | 0.01 | 0.00 | 66 | 1013.9 |
| 20260905073026 | 61 | 108 | 0.0 | 2.6 | 0.00 | 0.01 | 0.00 | 66 | 1013.9 |
| 20260905071522 | 61 | 108 | 0.0 | 0.0 | 0.00 | 0.01 | 0.00 | 67 | 1013.8 |
| 20260905070019 | 61 | 107 | 0.0 | 0.0 | 0.00 | 0.01 | 0.00 | 66 | 1013.7 |
| 20260905064522 | 62 | 89 | 0.0 | 1.7 | 0.00 | 0.01 | 0.01 | 66 | 1013.6 |
| 20260905063019 | 62 | 102 | 0.0 | 2.6 | 0.00 | 0.01 | 0.01 | 66 | 1013.6 |
| 20260905061529 | 62 | 108 | 0.0 | 0.0 | 0.00 | 0.01 | 0.01 | 67 | 1013.8 |
| 20260905060016 | 63 | 108 | 0.0 | 0.0 | 0.00 | 0.01 | 0.01 | 65 | 1013.7 |
| 20260905054522 | 63 | 114 | 0.0 | 0.9 | 0.00 | 0.01 | 0.01 | 64 | 1013.7 |
| 20260905053019 | 63 | 108 | 0.0 | 0.9 | 0.00 | 0.01 | 0.01 | 64 | 1013.8 |
| 20260905051519 | 64 | 91 | 0.0 | 0.9 | 0.00 | 0.01 | 0.01 | 63 | 1013.8 |
| 20260905050014 | 65 | 101 | 0.0 | 0.0 | 0.00 | 0.01 | 0.01 | 62 | 1013.8 |
| 20260905044517 | 66 | 88 | 0.0 | 0.0 | 0.00 | 0.01 | 0.01 | 60 | 1013.7 |
| 20260905043015 | 66 | 103 | 0.0 | 0.0 | 0.00 | 0.01 | 0.01 | 59 | 1013.5 |
| 20260905041514 | 67 | 162 | 0.0 | 0.9 | 0.00 | 0.01 | 0.01 | 57 | 1013.3 |
| 20260905040012 | 68 | 120 | 0.0 | 1.7 | 0.00 | 0.01 | 0.01 | 53 | 1013.2 |
| 20260905034511 | 68 | 136 | 0.0 | 2.6 | 0.00 | 0.01 | 0.01 | 50 | 1013.0 |
| 20260905033011 | 69 | 134 | 0.0 | 0.0 | 0.00 | 0.01 | 0.01 | 46 | 1012.8 |
| 20260905031511 | 70 | 134 | 0.0 | 0.0 | 0.00 | 0.01 | 0.01 | 44 | 1012.6 |
| 20260905030012 | 71 | 116 | 0.0 | 0.0 | 0.00 | 0.01 | 0.01 | 42 | 1012.6 |